Location: Blanton
(30.8302°N, 83.1188°W)
Time: 18:08:34
(UTC+00:00)

Tiangong - Visible Passes

Search period start: 27 November 2021 00:00
Search period end: 07 December 2021 00:00
Orbit: 381 x 385 km, 41.5° (Epoch: 27 November)

Date Brightness Start Highest point End Pass type
(mag) Time Alt. Az. Time Alt. Az. Time Alt. Az.
27 Nov 3.5 10:08:38 23° ENE 10:08:38 23° ENE 10:10:08 10° E visible
27 Nov 2.6 11:41:15 10° W 11:43:52 24° SW 11:46:27 10° SSE visible
28 Nov 1.3 10:43:40 51° SW 10:43:42 51° SSW 10:46:45 10° SE visible
29 Nov 4.7 09:46:33 10° ESE 09:46:33 10° ESE 09:46:34 10° ESE visible
29 Nov 3.5 11:18:45 10° WSW 11:19:53 12° SW 11:21:05 10° SSW visible
30 Nov 3.7 10:21:39 14° S 10:21:39 14° S 10:22:21 10° SSE visible
03 Dec 3.7 23:48:32 10° SSE 23:48:58 11° SSE 23:48:58 11° SSE visible
05 Dec 3.2 00:22:28 10° SW 00:23:55 24° SSW 00:23:55 24° SSW visible
05 Dec 2.7 23:22:39 10° SSW 23:25:10 22° SE 23:26:37 16° ESE visible
